| time (UTC) | temp F | wind direction | speed MPH | gust MPH | rain 1hr in | rain 24hr in | rain mn in | humidity % | barometer mb |
| 20260904100003 | 66 | 184 | 0.0 | 2.0 | 0.00 | 0.00 | 0.00 | 27 | 1027.4 |
| 20260904095403 | 66 | 184 | 0.0 | 1.0 | 0.00 | 0.00 | 0.00 | 27 | 1027.4 |
| 20260904094524 | 66 | 206 | 0.0 | 4.0 | 0.00 | 0.00 | 0.00 | 27 | 1027.4 |
| 20260904093624 | 67 | 196 | 0.0 | 5.0 | 0.00 | 0.00 | 0.00 | 27 | 1027.4 |
| 20260904092724 | 67 | 136 | 0.0 | 2.0 | 0.00 | 0.00 | 0.00 | 27 | 1027.4 |
| 20260904091803 | 67 | 173 | 1.0 | 4.0 | 0.00 | 0.00 | 0.00 | 26 | 1027.4 |
| 20260904090903 | 67 | 180 | 0.0 | 3.0 | 0.00 | 0.00 | 0.00 | 25 | 1027.4 |
| 20260904090003 | 67 | 200 | 0.0 | 2.0 | 0.00 | 0.00 | 0.00 | 25 | 1027.4 |
| 20260904085403 | 67 | 176 | 0.0 | 3.0 | 0.00 | 0.00 | 0.00 | 25 | 1027.4 |
| 20260904084503 | 67 | 170 | 1.0 | 7.0 | 0.00 | 0.00 | 0.00 | 25 | 1027.4 |
| 20260904083603 | 67 | 189 | 1.0 | 6.0 | 0.00 | 0.00 | 0.00 | 25 | 1027.4 |
| 20260904082703 | 66 | 202 | 1.0 | 3.0 | 0.00 | 0.00 | 0.00 | 27 | 1027.4 |
| 20260904081803 | 66 | 241 | 1.0 | 3.0 | 0.00 | 0.00 | 0.00 | 27 | 1027.4 |
| 20260904080903 | 66 | 242 | 0.0 | 2.0 | 0.00 | 0.00 | 0.00 | 28 | 1027.4 |
| 20260904080003 | 66 | 242 | 0.0 | 2.0 | 0.00 | 0.00 | 0.00 | 29 | 1027.4 |
| 20260904075403 | 67 | 242 | 0.0 | 2.0 | 0.00 | 0.00 | 0.00 | 28 | 1027.4 |
| 20260904074503 | 67 | 243 | 1.0 | 3.0 | 0.00 | 0.00 | 0.00 | 29 | 1027.4 |
| 20260904073603 | 68 | 177 | 0.0 | 3.0 | 0.00 | 0.00 | 0.00 | 29 | 1027.4 |
| 20260904072703 | 68 | 144 | 0.0 | 2.0 | 0.00 | 0.00 | 0.00 | 29 | 1027.4 |
| 20260904071803 | 69 | 146 | 0.0 | 4.0 | 0.00 | 0.00 | 0.00 | 28 | 1027.4 |
| 20260904070903 | 70 | 151 | 1.0 | 5.0 | 0.00 | 0.00 | 0.00 | 27 | 1027.4 |
| 20260904070003 | 70 | 140 | 1.0 | 5.0 | 0.00 | 0.00 | 0.00 | 28 | 1027.4 |
| 20260904065403 | 70 | 136 | 1.0 | 5.0 | 0.00 | 0.00 | 0.00 | 28 | 1027.4 |
| 20260904064504 | 70 | 137 | 1.0 | 7.0 | 0.00 | 0.00 | 0.00 | 28 | 1027.4 |
| 20260904063603 | 71 | 160 | 1.0 | 7.0 | 0.00 | 0.00 | 0.00 | 28 | 1027.4 |
| 20260904062703 | 71 | 162 | 1.0 | 9.0 | 0.00 | 0.00 | 0.00 | 27 | 1027.4 |
| 20260904061803 | 71 | 160 | 1.0 | 9.0 | 0.00 | 0.00 | 0.00 | 28 | 1027.4 |
| 20260904060903 | 72 | 149 | 1.0 | 6.0 | 0.00 | 0.00 | 0.00 | 27 | 1027.4 |
| 20260904060004 | 72 | 142 | 1.0 | 5.0 | 0.00 | 0.00 | 0.00 | 26 | 1027.4 |
| 20260904055403 | 72 | 140 | 2.0 | 7.0 | 0.00 | 0.00 | 0.00 | 25 | 1027.4 |
| 20260904054503 | 72 | 140 | 2.0 | 7.0 | 0.00 | 0.00 | 0.00 | 25 | 1027.4 |
| 20260904053624 | 72 | 141 | 1.0 | 4.0 | 0.00 | 0.00 | 0.00 | 26 | 1027.4 |
| 20260904052703 | 72 | 147 | 1.0 | 6.0 | 0.00 | 0.00 | 0.00 | 26 | 1027.4 |
| 20260904051803 | 73 | 162 | 1.0 | 5.0 | 0.00 | 0.00 | 0.00 | 25 | 1027.4 |
| 20260904050903 | 73 | 153 | 2.0 | 8.0 | 0.00 | 0.00 | 0.00 | 25 | 1027.4 |
| 20260904050004 | 73 | 161 | 1.0 | 10.0 | 0.00 | 0.00 | 0.00 | 26 | 1027.4 |
| 20260904045403 | 73 | 157 | 1.0 | 10.0 | 0.00 | 0.00 | 0.00 | 25 | 1027.4 |
| 20260904044503 | 74 | 149 | 1.0 | 6.0 | 0.00 | 0.00 | 0.00 | 25 | 1027.4 |
| 20260904043624 | 74 | 148 | 2.0 | 10.0 | 0.00 | 0.00 | 0.00 | 24 | 1027.4 |
| 20260904042703 | 74 | 138 | 1.0 | 5.0 | 0.00 | 0.00 | 0.00 | 24 | 1027.4 |
| 20260904041803 | 75 | 134 | 2.0 | 7.0 | 0.00 | 0.00 | 0.00 | 22 | 1027.4 |
| 20260904040903 | 75 | 151 | 1.0 | 7.0 | 0.00 | 0.00 | 0.00 | 20 | 1027.4 |
| 20260904040003 | 76 | 166 | 1.0 | 4.0 | 0.00 | 0.00 | 0.00 | 19 | 1027.4 |
| 20260904035403 | 76 | 139 | 1.0 | 3.0 | 0.00 | 0.00 | 0.00 | 18 | 1027.4 |
| 20260904034503 | 76 | 168 | 1.0 | 5.0 | 0.00 | 0.00 | 0.00 | 18 | 1027.4 |
| 20260904033603 | 76 | 165 | 1.0 | 5.0 | 0.00 | 0.00 | 0.00 | 18 | 1027.4 |
| 20260904032703 | 77 | 164 | 1.0 | 7.0 | 0.00 | 0.00 | 0.00 | 18 | 1027.4 |
| 20260904031803 | 77 | 201 | 2.0 | 6.0 | 0.00 | 0.00 | 0.00 | 17 | 1027.4 |
| 20260904030903 | 77 | 191 | 2.0 | 8.0 | 0.00 | 0.00 | 0.00 | 17 | 1027.4 |
| 20260904030003 | 77 | 194 | 2.0 | 6.0 | 0.00 | 0.00 | 0.00 | 18 | 1027.4 |
| 20260904025403 | 77 | 203 | 1.0 | 6.0 | 0.00 | 0.00 | 0.00 | 18 | 1027.4 |
| 20260904024503 | 77 | 194 | 1.0 | 5.0 | 0.00 | 0.00 | 0.00 | 18 | 1027.4 |
| 20260904023624 | 78 | 190 | 1.0 | 5.0 | 0.00 | 0.00 | 0.00 | 17 | 1027.4 |
| 20260904022703 | 78 | 187 | 1.0 | 9.0 | 0.00 | 0.00 | 0.00 | 17 | 1027.4 |
| 20260904021803 | 78 | 191 | 1.0 | 7.0 | 0.00 | 0.00 | 0.00 | 17 | 1027.4 |
| 20260904020903 | 79 | 180 | 2.0 | 7.0 | 0.00 | 0.00 | 0.00 | 17 | 1027.4 |
| 20260904020003 | 79 | 176 | 2.0 | 6.0 | 0.00 | 0.00 | 0.00 | 16 | 1027.4 |
| 20260904015403 | 79 | 171 | 1.0 | 4.0 | 0.00 | 0.00 | 0.00 | 17 | 1027.4 |
| 20260904014503 | 80 | 181 | 2.0 | 7.0 | 0.00 | 0.00 | 0.00 | 17 | 1027.4 |
| 20260904013603 | 80 | 184 | 2.0 | 6.0 | 0.00 | 0.00 | 0.00 | 16 | 1027.4 |
| 20260904012703 | 81 | 188 | 2.0 | 9.0 | 0.00 | 0.00 | 0.00 | 16 | 1027.4 |
| 20260904011803 | 81 | 191 | 2.0 | 13.0 | 0.00 | 0.00 | 0.00 | 16 | 1027.4 |
| 20260904010903 | 81 | 188 | 3.0 | 10.0 | 0.00 | 0.00 | 0.00 | 16 | 1027.4 |
| 20260904010003 | 81 | 183 | 3.0 | 10.0 | 0.00 | 0.00 | 0.00 | 16 | 1027.4 |
| 20260904005403 | 81 | 195 | 3.0 | 10.0 | 0.00 | 0.00 | 0.00 | 16 | 1027.4 |
| 20260904004524 | 80 | 200 | 2.0 | 10.0 | 0.00 | 0.00 | 0.00 | 17 | 1027.4 |
| 20260904003603 | 80 | 173 | 1.0 | 7.0 | 0.00 | 0.00 | 0.00 | 18 | 1027.4 |
| 20260904002724 | 80 | 162 | 2.0 | 10.0 | 0.00 | 0.00 | 0.00 | 17 | 1027.4 |
| 20260904001824 | 81 | 143 | 1.0 | 11.0 | 0.00 | 0.00 | 0.00 | 18 | 1027.4 |
| 20260904000903 | 81 | 148 | 1.0 | 7.0 | 0.00 | 0.00 | 0.00 | 18 | 1027.4 |
| 20260904000024 | 81 | 145 | 1.0 | 8.0 | 0.00 | 0.00 | 0.00 | 17 | 1027.4 |
| 20260903235403 | 82 | 152 | 1.0 | 8.0 | 0.00 | 0.00 | 0.00 | 18 | 1027.4 |
| 20260903234503 | 82 | 165 | 1.0 | 7.0 | 0.00 | 0.00 | 0.00 | 16 | 1027.4 |
| 20260903233603 | 83 | 141 | 1.0 | 8.0 | 0.00 | 0.00 | 0.00 | 16 | 1027.4 |
| 20260903232724 | 85 | 143 | 3.0 | 12.0 | 0.00 | 0.00 | 0.00 | 16 | 1027.4 |
| 20260903231803 | 85 | 153 | 2.0 | 13.0 | 0.00 | 0.00 | 0.00 | 17 | 1027.4 |
| 20260903230903 | 86 | 163 | 2.0 | 8.0 | 0.00 | 0.00 | 0.00 | 15 | 1027.4 |
| 20260903230003 | 86 | 185 | 3.0 | 9.0 | 0.00 | 0.00 | 0.00 | 16 | 1027.4 |
| 20260903225403 | 86 | 185 | 4.0 | 15.0 | 0.00 | 0.00 | 0.00 | 16 | 1027.4 |
| 20260903224524 | 86 | 172 | 3.0 | 9.0 | 0.00 | 0.00 | 0.00 | 15 | 1027.4 |
| 20260903223603 | 85 | 152 | 2.0 | 13.0 | 0.00 | 0.00 | 0.00 | 16 | 1027.4 |
| 20260903222703 | 85 | 184 | 1.0 | 8.0 | 0.00 | 0.00 | 0.00 | 18 | 1027.4 |
| 20260903221803 | 84 | 161 | 3.0 | 13.0 | 0.00 | 0.00 | 0.00 | 16 | 1027.4 |
| 20260903220903 | 84 | 155 | 3.0 | 12.0 | 0.00 | 0.00 | 0.00 | 16 | 1027.4 |
| 20260903220003 | 84 | 136 | 6.0 | 17.0 | 0.00 | 0.00 | 0.00 | 15 | 1027.4 |
| 20260903215403 | 84 | 142 | 4.0 | 20.0 | 0.00 | 0.00 | 0.00 | 19 | 1027.4 |
| 20260903214503 | 84 | 142 | 4.0 | 21.0 | 0.00 | 0.00 | 0.00 | 14 | 1027.4 |
| 20260903213603 | 84 | 140 | 4.0 | 14.0 | 0.00 | 0.00 | 0.00 | 18 | 1027.4 |
| 20260903212703 | 84 | 136 | 6.0 | 18.0 | 0.00 | 0.00 | 0.00 | 15 | 1027.4 |
| 20260903211803 | 84 | 151 | 3.0 | 10.0 | 0.00 | 0.00 | 0.00 | 16 | 1027.4 |
| 20260903210903 | 84 | 138 | 3.0 | 15.0 | 0.00 | 0.00 | 0.00 | 15 | 1027.4 |
| 20260903210003 | 85 | 165 | 3.0 | 10.0 | 0.00 | 0.00 | 0.00 | 17 | 1027.4 |
| 20260903205403 | 85 | 172 | 3.0 | 8.0 | 0.00 | 0.00 | 0.00 | 16 | 1027.4 |
| 20260903204503 | 84 | 174 | 2.0 | 8.0 | 0.00 | 0.00 | 0.00 | 16 | 1027.4 |
| 20260903203603 | 84 | 173 | 4.0 | 10.0 | 0.00 | 0.00 | 0.00 | 17 | 1027.4 |
| 20260903202703 | 83 | 137 | 5.0 | 14.0 | 0.00 | 0.00 | 0.00 | 21 | 1027.4 |
| 20260903201824 | 82 | 130 | 6.0 | 19.0 | 0.00 | 0.00 | 0.00 | 16 | 1027.4 |
| 20260903200903 | 83 | 131 | 3.0 | 9.0 | 0.00 | 0.00 | 0.00 | 16 | 1027.4 |
| 20260903200003 | 82 | 138 | 5.0 | 11.0 | 0.00 | 0.00 | 0.00 | 17 | 1027.4 |
| 20260903195403 | 82 | 137 | 4.0 | 15.0 | 0.00 | 0.00 | 0.00 | 17 | 1027.4 |
| 20260903194503 | 82 | 143 | 4.0 | 16.0 | 0.00 | 0.00 | 0.00 | 18 | 1027.4 |
| 20260903193603 | 81 | 128 | 7.0 | 18.0 | 0.00 | 0.00 | 0.00 | 18 | 1027.4 |
| 20260903192724 | 81 | 130 | 5.0 | 18.0 | 0.00 | 0.00 | 0.00 | 16 | 1027.4 |
| 20260903191803 | 81 | 136 | 5.0 | 16.0 | 0.00 | 0.00 | 0.00 | 18 | 1027.4 |
| 20260903190903 | 81 | 137 | 4.0 | 15.0 | 0.00 | 0.00 | 0.00 | 17 | 1027.4 |
| 20260903190003 | 81 | 130 | 5.0 | 13.0 | 0.00 | 0.00 | 0.00 | 21 | 1027.4 |
| 20260903185403 | 80 | 124 | 6.0 | 19.0 | 0.00 | 0.00 | 0.00 | 18 | 1027.4 |
| 20260903184503 | 80 | 127 | 6.0 | 13.0 | 0.00 | 0.00 | 0.00 | 20 | 1027.4 |
| 20260903183603 | 80 | 128 | 7.0 | 19.0 | 0.00 | 0.00 | 0.00 | 19 | 1027.4 |
| 20260903182703 | 81 | 135 | 4.0 | 17.0 | 0.00 | 0.00 | 0.00 | 17 | 1027.4 |
| 20260903181803 | 81 | 175 | 2.0 | 8.0 | 0.00 | 0.00 | 0.00 | 21 | 1027.4 |
| 20260903180903 | 80 | 152 | 2.0 | 9.0 | 0.00 | 0.00 | 0.00 | 21 | 1027.4 |
| 20260903180003 | 79 | 153 | 2.0 | 8.0 | 0.00 | 0.00 | 0.00 | 22 | 1027.4 |
| 20260903175424 | 79 | 126 | 4.0 | 17.0 | 0.00 | 0.00 | 0.00 | 21 | 1027.4 |
| 20260903174503 | 78 | 128 | 6.0 | 15.0 | 0.00 | 0.00 | 0.00 | 20 | 1027.4 |
| 20260903173603 | 78 | 127 | 6.0 | 15.0 | 0.00 | 0.00 | 0.00 | 18 | 1027.4 |
| 20260903172703 | 78 | 127 | 6.0 | 14.0 | 0.00 | 0.00 | 0.00 | 19 | 1027.4 |
| 20260903171803 | 78 | 154 | 3.0 | 10.0 | 0.00 | 0.00 | 0.00 | 20 | 1027.4 |
| 20260903170924 | 78 | 143 | 2.0 | 15.0 | 0.00 | 0.00 | 0.00 | 21 | 1027.4 |
| 20260903170003 | 78 | 142 | 2.0 | 11.0 | 0.00 | 0.00 | 0.00 | 20 | 1027.4 |
| 20260903165403 | 78 | 143 | 2.0 | 8.0 | 0.00 | 0.00 | 0.00 | 22 | 1027.4 |
| 20260903164524 | 77 | 155 | 2.0 | 12.0 | 0.00 | 0.00 | 0.00 | 22 | 1027.4 |
| 20260903163603 | 76 | 140 | 4.0 | 12.0 | 0.00 | 0.00 | 0.00 | 21 | 1027.4 |
| 20260903162703 | 76 | 150 | 2.0 | 12.0 | 0.00 | 0.00 | 0.00 | 23 | 1027.4 |
| 20260903161803 | 76 | 146 | 3.0 | 12.0 | 0.00 | 0.00 | 0.00 | 21 | 1027.4 |
| 20260903160903 | 75 | 140 | 2.0 | 10.0 | 0.00 | 0.00 | 0.00 | 24 | 1027.4 |
| 20260903160024 | 74 | 139 | 2.0 | 10.0 | 0.00 | 0.00 | 0.00 | 23 | 1027.4 |
| 20260903155403 | 74 | 155 | 2.0 | 8.0 | 0.00 | 0.00 | 0.00 | 26 | 1027.4 |
| 20260903154503 | 74 | 151 | 1.0 | 7.0 | 0.00 | 0.00 | 0.00 | 26 | 1027.4 |
| 20260903153603 | 74 | 152 | 2.0 | 8.0 | 0.00 | 0.00 | 0.00 | 25 | 1027.4 |
| 20260903152724 | 74 | 150 | 2.0 | 7.0 | 0.00 | 0.00 | 0.00 | 26 | 1027.4 |
| 20260903151803 | 74 | 171 | 2.0 | 6.0 | 0.00 | 0.00 | 0.00 | 26 | 1027.4 |
| 20260903150903 | 73 | 181 | 2.0 | 7.0 | 0.00 | 0.00 | 0.00 | 24 | 1027.4 |
| 20260903150003 | 72 | 185 | 1.0 | 4.0 | 0.00 | 0.00 | 0.00 | 25 | 1027.4 |
| 20260903145403 | 72 | 181 | 1.0 | 6.0 | 0.00 | 0.00 | 0.00 | 25 | 1027.4 |
| 20260903144503 | 71 | 167 | 0.0 | 4.0 | 0.00 | 0.00 | 0.00 | 26 | 1027.4 |
| 20260903143603 | 69 | 169 | 1.0 | 4.0 | 0.00 | 0.00 | 0.00 | 27 | 1027.4 |
| 20260903142703 | 68 | 155 | 2.0 | 6.0 | 0.00 | 0.00 | 0.00 | 28 | 1027.4 |
| 20260903141803 | 66 | 133 | 1.0 | 7.0 | 0.00 | 0.00 | 0.00 | 28 | 1027.4 |
| 20260903140903 | 65 | 137 | 1.0 | 5.0 | 0.00 | 0.00 | 0.00 | 29 | 1027.4 |
| 20260903140003 | 63 | 145 | 1.0 | 3.0 | 0.00 | 0.00 | 0.00 | 30 | 1027.4 |
| 20260903135403 | 62 | 148 | 1.0 | 2.0 | 0.00 | 0.00 | 0.00 | 31 | 1027.4 |
| 20260903134503 | 60 | 141 | 0.0 | 4.0 | 0.00 | 0.00 | 0.00 | 32 | 1027.4 |
| 20260903133624 | 58 | 163 | 0.0 | 3.0 | 0.00 | 0.00 | 0.00 | 32 | 1027.4 |
| 20260903132703 | 57 | 201 | 0.0 | 3.0 | 0.00 | 0.00 | 0.00 | 33 | 1027.4 |
| 20260903131824 | 56 | 213 | 0.0 | 2.0 | 0.00 | 0.00 | 0.00 | 35 | 1027.4 |
| 20260903130903 | 56 | 213 | 1.0 | 4.0 | 0.00 | 0.00 | 0.00 | 37 | 1027.4 |
| 20260903130003 | 55 | 213 | 0.0 | 4.0 | 0.00 | 0.00 | 0.00 | 41 | 1027.4 |
| 20260903125424 | 55 | 213 | 0.0 | 4.0 | 0.00 | 0.00 | 0.00 | 41 | 1027.4 |
| 20260903124503 | 55 | 213 | 0.0 | 1.0 | 0.00 | 0.00 | 0.00 | 46 | 1027.4 |
| 20260903123624 | 56 | 213 | 0.0 | 1.0 | 0.00 | 0.00 | 0.00 | 44 | 1027.4 |
| 20260903122724 | 56 | 0 | 0.0 | 0.0 | 0.00 | 0.00 | 0.00 | 44 | 1027.4 |
| 20260903121803 | 57 | 0 | 0.0 | 0.0 | 0.00 | 0.00 | 0.00 | 42 | 1027.4 |
| 20260903120903 | 57 | 213 | 0.0 | 1.0 | 0.00 | 0.00 | 0.00 | 40 | 1027.4 |
| 20260903120003 | 58 | 0 | 0.0 | 0.0 | 0.00 | 0.00 | 0.00 | 40 | 1027.4 |
| 20260903115403 | 58 | 0 | 0.0 | 0.0 | 0.00 | 0.00 | 0.00 | 41 | 1027.4 |
| 20260903114503 | 59 | 213 | 0.0 | 1.0 | 0.00 | 0.00 | 0.00 | 38 | 1027.4 |
| 20260903113603 | 60 | 0 | 0.0 | 0.0 | 0.00 | 0.00 | 0.00 | 35 | 1027.4 |
| 20260903112703 | 61 | 0 | 0.0 | 0.0 | 0.00 | 0.00 | 0.00 | 31 | 1027.4 |
| 20260903111803 | 61 | 213 | 0.0 | 1.0 | 0.00 | 0.00 | 0.00 | 26 | 1027.4 |
| 20260903110903 | 61 | 213 | 0.0 | 1.0 | 0.00 | 0.00 | 0.00 | 26 | 1027.4 |
| 20260903110003 | 62 | 213 | 0.0 | 2.0 | 0.00 | 0.00 | 0.00 | 26 | 1027.4 |
| 20260903105403 | 62 | 213 | 1.0 | 4.0 | 0.00 | 0.00 | 0.00 | 27 | 1027.4 |
| 20260903104503 | 62 | 212 | 2.0 | 7.0 | 0.00 | 0.00 | 0.00 | 27 | 1027.4 |
| 20260903103603 | 62 | 214 | 2.0 | 7.0 | 0.00 | 0.00 | 0.00 | 26 | 1027.4 |
| 20260903102703 | 62 | 214 | 2.0 | 4.0 | 0.00 | 0.00 | 0.00 | 26 | 1027.4 |
| 20260903101803 | 62 | 214 | 1.0 | 6.0 | 0.00 | 0.00 | 0.00 | 27 | 1027.4 |
| 20260903100903 | 62 | 216 | 2.0 | 6.0 | 0.00 | 0.00 | 0.00 | 30 | 1027.4 |